Weather in Veselovskoye

Russia / Novosibirsk Oblast     53°59′05″N   78°42′43″E
temp.,
°C
wind,
m/s
gust,
m/s
humid.,
%
clouds,
%
prec.,
mm/h
press.,
hPa
HPBL,
m
25 february, thu
thu2501:00−21sw4109765 0.1 1015248
04:00−24sw5109333 0.0 1015195
07:00−26ssw5119022 0.0 1016208
10:00−24ssw6119495 0.0 1017422
13:00−21sw7108798 0.1 10181147
16:00−20sw71186100 0.1 10191365
19:00−21ssw51092100 0.1 1020563
22:00−22sw51096100 0.1 1021512
26 february, fri
fri2601:00−24wsw51097100 0.1 1023298
04:00−27wsw51096100 0.1 1025300
07:00−27wsw51097100 0.1 1028290
10:00−29wsw51097100 0.0 1031268
13:00−28wsw589492 0.0 1034342
16:00−26sw589394 0.0 1035450
19:00−28sw469797 0.0 1036114
22:00−29sw4898100 0.0 1037159
27 february, sat
sat2701:00−30sw469896 0.1 1037104
04:00−31ssw349993 0.0 103779
07:00−32ssw349991 0.0 103756
10:00−31ssw379790 0.0 1038137
13:00−27ssw469550 0.0 1038258
16:00−25ssw469346 0.0 1037322
19:00−27s349632 0.0 103740
22:00−29s44950 0.0 103758
28 february, sun
sun2801:00−29s469333 0.0 103681
04:00−28sse479541 0.0 1034111
07:00−25sse5109262 0.0 1032192
10:00−21sse6128998 0.0 1030270
13:00−16sse7138599 0.0 1027351
16:00−11sse81485100 0.1 1023599
19:00−9sse81494100 0.9 1019733
22:00−5s81595100 1.6 1016803
1 march, mon
mon101:00−4ssw81595100 2.6 1013728
04:00−2ssw91596100 2.1 1010844
07:00−1sw91694100 3.8 1009740
10:000sw81398100 1.1 1009639
13:000sw81299100 2.1 1011708
16:000wsw81298100 0.6 1012879
19:00−1wsw61195100 0.8 1013715
22:00−2sw4997100 0.6 1013445